www.pogodaiklimat.ru

Погода и климат >> Архив погоды >> Индонезия >> Медан Полония


ПОГОДА в Медан Полония

  • Прогноз погоды в Медан Полония
  • Монитор погоды в Медан Полония

АРХИВ ПОГОДЫ в Медан Полония

Время (UTC), дата Ветер
(напр.,м/с)
 
Видим.   Явления Облачность Т
(С)
Тd
(С)
f
(%)
Тe
(С)
Тes
(С)
Комфортность P
(гПа)
Po
(гПа)
Тmin
(С)
Tmax
(С)
R
(мм)
R24
(мм)
S
(см)
21 18.08 ЮЗ 2 3000 м дымка 9/3 500 м
[Sc Ac As Cs]
+25.2 +24.8 98 +36 +36 очень
душно
1010.4 1009.3
00 19.08 ЮВ 2 4000 м дымка 9/3 500 м
[Sc Ac As Cs]
+24.8 +24.7 99 +35 +35 очень
душно
1010.8 1009.8 +24.3 2
03 19.08 В 5 7000 м 9/4 540 м
[Cu hum Ac As Cs]
+30.3 +26.6 81 +47 +50 опасность
перегрева
1011.5 1010.5
06 19.08 В 6 8000 м 9/4 540 м
[Cu med, cong Ac As Cs]
+32.3 +25.0 65 +46 +49 опасность
перегрева
1009.3 1008.4
09 19.08 СВ 5 8000 м 9/3 600 м
[Cu med, cong Ac As Cs]
+32.0 +26.4 72 +48 +50 опасность
перегрева
1007.3 1006.2
12 19.08 В 3 8000 м 9/3 540 м
[Sc Ac As Cs]
+28.5 +25.4 83 +42 +42 опасность
перегрева
1008.6 1007.7 +35.4
15 19.08 В 2 4000 м дымка 9/3 540 м
[Sc Ac As Cs]
+26.6 +25.6 94 +39 +39 очень
душно
1010.5 1009.6
18 19.08 ЮЗ 3 4000 м мгла 9/3 540 м
[Sc Ac As Cs]
+26.1 +25.4 96 +38 +38 очень
душно
1010.0 1009.1
21 19.08 З 2 3000 м мгла 9/3 540 м
[Sc Ac As Cs]
+25.4 +24.7 96 +36 +36 очень
душно
1009.3 1008.3
00 20.08 Ю 2 4000 м мгла 9/3 500 м
[Sc Ac As Cs]
+24.4 +23.7 96 +33 +33 очень
душно
1009.7 1008.9 +24.3
03 20.08 СВ 4 6000 м 8/3 500 м
[Sc Ac As Cs]
+31.5 +24.4 66 +44 +49 опасность
перегрева
1010.1 1009.2
06 20.08 С 7 8000 м 8/4 500 м
[Cu med, cong Ac As Cs]
+33.0 +24.3 60 +45 +48 опасность
перегрева
1008.2 1007.2
09 20.08 СВ 7 7000 м 8/4 500 м
[Cu med, cong Ac As Cs]
+32.4 +24.5 63 +45 +46 опасность
перегрева
1005.9 1004.9
12 20.08 В 2 5000 м мгла 8/4 500 м
[Cu med, cong Ac As Cs]
+28.8 +24.8 79 +41 +41 опасность
перегрева
1007.4 1006.4 +34.6
15 20.08 З 3 5000 м мгла 9/4 500 м
[Sc Ac As Cs]
+26.6 +23.0 81 +36 +36 очень
душно
1009.4 1008.4
18 20.08 ЮЗ 2 10 км 9/5 480 м
[Cb cap Ac As Cs]
+26.2 +22.8 82 +35 +35 очень
душно
1009.6 1008.6
21 20.08 ЮЗ 3 4000 м гроза, ливневой дождь 10/6
[Cb cap Ac As]
+24.4 +23.7 96 +33 +33 очень
душно
1009.2 1008.2 3
00 21.08 Ю 2 2000 м гроза, ливневой дождь 10/6
[Cb cap As op]
+24.2 +23.8 98 +33 +33 очень
душно
1010.1 1009.2 +24.0 4
03 21.08 ЮВ 2 4000 м мгла {гроза, дождь} 10/6
[Cb cap As op]
+25.6 +24.3 93 +36 +37 очень
душно
1012.2 1011.3 0.1
06 21.08 Ю 4 9000 м мгла {гроза, дождь} 10/6 500 м
[Cu Sc Ac As]
+28.8 +24.5 78 +41 +43 опасность
перегрева
1010.6 1009.7
09 21.08 Ю 2 10 км 10/6 500 м
[Cu Sc As op]
+29.9 +22.8 66 +40 +40 очень
душно
1008.4 1007.4
12 21.08 ЮВ 2 10 км 10/6 500 м
[Cu Sc Ac As]
+26.4 +23.2 83 +36 +36 очень
душно
1009.2 1008.3 +30.3
15 21.08 штиль 0 4000 м мгла 9/4 500 м
[Sc Ac As Cs]
+25.3 +24.2 94 +35 +35 очень
душно
1011.0 1010.0
18 21.08 Ю 2 3000 м мгла 9/4 500 м
[Sc Ac As Cs]
+25.1 +24.1 94 +35 +35 очень
душно
1010.9 1009.9
21 21.08 Ю 2 5000 м мгла 9/4 540 м
[Sc Ac As Cs]
+23.8 +22.9 95 +32 +32 очень
душно
1010.2 1009.2
00 22.08 ЮВ 1 5000 м мгла 8/4 500 м
[Cu med, cong Ac As Cs]
+23.4 +22.4 94 +32 +33 очень
душно
1011.3 1010.3 +23.5 0.1
03 22.08 ЮВ 2 10 км 8/4 500 м
[Cu med, cong Ac As Cs]
+29.9 +24.2 72 +42 +48 опасность
перегрева
1012.6 1011.6
06 22.08 СЗ 5 10 км 8/4 500 м
[Cu med, cong Ac As Cs]
+30.8 +23.4 65 +42 +46 опасность
перегрева
1010.1 1009.1
09 22.08 С 5 10 км 8/3 540 м
[Cu med, cong Ac As Cs]
+30.9 +24.7 70 +44 +46 опасность
перегрева
1007.8 1006.8
12 22.08 СВ 1 8000 м 6/3 540 м
[Cu med, cong Ac As Cs]
+28.4 +24.9 81 +41 +41 опасность
перегрева
1008.7 1007.7 +32.0
15 22.08 Ю 3 4500 м 6/3 500 м
[Sc Ac As Cs]
+26.7 +24.0 85 +37 +37 очень
душно
1011.3 1010.3
18 22.08 Ю 2 6000 м 8/4 500 м
[Sc Ac As Cs]
+25.1 +23.4 90 +34 +34 очень
душно
1011.2 1010.2
21 22.08 ЮЗ 2 6000 м 6/4 500 м
[Sc Ac As Cs]
+25.3 +24.3 94 +35 +35 очень
душно
1010.1 1009.0
00 23.08 Ю 2 2600 м дымка 8/3 500 м
[Cu med, cong Ac As Cs]
+25.0 +24.0 94 +34 +35 очень
душно
1011.3 1010.3 +23.0
03 23.08 ЮВ 2 6000 м 9/4 500 м
[Cu med, cong Ac As Cs]
+29.4 +24.6 75 +42 +47 опасность
перегрева
1012.1 1011.2
06 23.08 СВ 3 7000 м 9/4 500 м
[Cu med, cong Ac As Cs]
+29.4 +24.6 75 +42 +48 опасность
перегрева
1010.1 1009.0
09 23.08 В 3 6000 м 8/4 500 м
[Cu med, cong Ac As Cs]
+31.3 +24.8 68 +44 +47 опасность
перегрева
1007.8 1006.9
12 23.08 СВ 2 7000 м 8/3 540 м
[Cu med, cong Ac As Cs]
+27.9 +24.3 81 +39 +39 очень
душно
1008.9 1007.9 +32.3
15 23.08 ЮЗ 2 3500 м 8/3 540 м
[Cu med, cong Ac As Cs]
+26.9 +24.6 87 +38 +38 очень
душно
1011.5 1010.5
18 23.08 ЮЗ 2 3000 м мгла 8/3 540 м
[Sc Ac As Cs]
+25.7 +24.1 91 +36 +36 очень
душно
1011.3 1010.4
21 23.08 З 3 3000 м мгла 8/3 540 м
[Sc Ac As Cs]
+25.5 +24.1 92 +35 +35 очень
душно
1009.8 1008.8
00 24.08 ЮЗ 2 2500 м мгла 10/5 500 м
[Cb cap Ac As Cs]
+25.3 +24.2 94 +35 +35 очень
душно
1010.9 1009.9 +24.4
03 24.08 ЮВ 3 1300 м слаб. дождь 10/5 500 м
[Sc As op Cs]
+25.2 +24.2 94 +35 +38 очень
душно
1012.2 1011.1 1
06 24.08 ЮВ 3 9000 м {дождь} 10/5 500 м
[Sc Ac As Cs]
+26.9 +23.4 81 +36 +41 очень
душно
1010.6 1009.7 0.1
09 24.08 СВ 3 8000 м 10/4 500 м
[Sc Ac As Cs]
+28.3 +22.8 72 +38 +40 очень
душно
1008.6 1007.5
12 24.08 штиль 0 9000 м 10/4 500 м
[Sc Ac As Cs]
+26.7 +23.5 83 +36 +36 очень
душно
1009.8 1008.8 +29.2
15 24.08 З 2 4000 м мгла 9/3 500 м
[Sc Ac As Cs]
+26.3 +24.7 91 +37 +37 очень
душно
1011.0 1010.1
18 24.08 З 3 3000 м мгла 9/4 500 м
[Sc Ac As Cs]
+25.3 +23.1 88 +34 +34 очень
душно
1010.6 1009.6
21 24.08 ЮЗ 2 4000 м мгла 9/4 500 м
[Sc Ac As Cs]
+24.4 +23.2 93 +33 +33 очень
душно
1009.5 1008.5
00 25.08 В 2 3000 м гроза, ливневой дождь 9/5 500 м
[Cb cap Ac As Cs]
+24.4 +23.7 96 +33 +33 очень
душно
1011.9 1010.9 +24.1 0.0
03 25.08 штиль 0 3000 м слаб. дождь {гроза} 10/5 500 м
[Sc Ac As Cs]
+26.0 +23.5 86 +35 +40 очень
душно
1012.7 1011.7 2
06 25.08 СВ 2 10 км {гроза, дождь} 9/4 540 м
[Sc Ac As Cs]
+29.3 +23.4 71 +40 +47 очень
душно
1010.4 1009.5 0.0
09 25.08 СВ 4 10 км 9/4 540 м
[Sc Ac As Cs]
+29.5 +23.0 68 +39 +41 очень
душно
1008.9 1007.9
12 25.08 ЮВ 3 10 км зарница {дождь} 9/4 500 м
[Cb cap Ac As Cs]
+26.2 +23.6 86 +36 +36 очень
душно
1010.2 1009.2 +30.3 0.0
15 25.08 Ю 2 9000 м 9/4 500 м
[Sc Ac As Cs]
+25.2 +23.0 88 +34 +34 очень
душно
1011.0 1010.0

 

Местоположение метеостанции Медан Полония (Индонезия): широта 3.57 долгота 98.68 высота над уровнем моря 25 м.

В архиве по умолчанию представлена погода в Медан Полония за последнюю неделю. Архивные данные за месяц целиком и за предыдущие месяцы, начиная с января 2011 года, Вы можете получить, выбрав интересующий диапазон дат из раскрывающегося списка и нажав кнопку "Ввод!".


*Определитесь, кто Вы:
робот инопланетянин человек

Внимание! Время в таблицах - всемирное. Для получения местного времени необходимо прибавить поправку, которая равна 7 ч.

Смотрите также архив погоды в соседних городах и на ближайших метеорологических станциях:

Погода в Белаване (Индонезия) (26 км)
Погода в Сиболге (Индонезия) (226 км)
Погода в Ситаване (Малайзия) (236 км)
Погода в Лхоксёмаве (Индонезия) (247 км)
Погода в Гунунгситоли (Индонезия) (258 км)
Погода в Пенанге (Малайзия) (260 км)
Погода на Авиабазе Баттерворт (Малайзия) (283 км)
Погода в Ипохе (Малайзия) (291 км)
Погода в Меулабохе (Индонезия) (294 км)
Погода на Нагорье Кэмерон (Малайзия) (315 км)

Пояснения к столбцам:

Ветер - указаны скорость ветра в м/с - средняя за 10 мин, порывы в срок и между сроками (в фигурных скобках) и направление, откуда дует ветер: С - северный, СВ - северо-восточный, В - восточный, ЮВ - юго-восточный, Ю - южный, ЮЗ - юго-западный, З - западный, СЗ - северо-западный.
Видимость - горизонтальная дальность видимости в метрах или километрах. При видимости от 1 до 10 км при отсутствии осадков обычно наблюдается дымка, при ухудшении видимости до 1 км и менее - туман. В сухую погоду видимость может ухудшаться дымом, пылью или мглою.
Явления - указаны атмосферные явления, наблюдавшиеся в срок или в последний час перед сроком; фигурными скобками обозначены явления, наблюдавшиеся между сроками (за 1-3 часа до срока); квадратными скобками обозначены град или гололедные отложения с указанием их диаметра в мм.
Облачность - указаны через наклонную черту общая и нижняя облачность в баллах и высота нижней границы облаков в метрах; квадратными скобками обозначены формы облаков: Ci - перистые, Cs - перисто-слоистые, Cc - перисто-кучевые, Ac - высококучевые, As - высокослоистые, Sc - слоисто-кучевые, Ns - слоисто-дождевые, Cu - кучевые, Cb - кучево-дождевые. Подробнее классификацию облаков см. в Атласе облаков (PDF).
T - Температура воздуха - температура, измеренная на высоте 2 м над землей.
Td - Температура точки росы - температура, при понижении до которой содержащийся в воздухе водяной пар достигнет насыщения.
f - Относительная влажность воздуха - влажноcть воздуха, измеренная на высоте 2 м над землей.
Te - Эффективная температура - температура, которую ощущает одетый по сезону человек в тени. Характеристика душности погоды. При расчете учитывается влияние влажности воздуха и скорости ветра на теплоощущения человека.
Tes - Эффективная температура на солнце - температура, которую ощущает человек, с поправкой на солнечный нагрев. Характеристика знойности погоды. Зависит от высоты солнца над горизонтом, облачности и скорости ветра. Ночью, в пасмурную погоду, а также при ветре 12 м/с и более поправка равна нулю.
P - Атмосферное давление - приведенное к уровню моря атмосферное давление.
Po - Атмосферное давление - измеренное на уровне метеостанции атмосферное давление.
Tmin - Минимальная температура - минимум температуры воздуха на высоте 2 м над землей.
Tmax - Максимальная температура - максимум температуры воздуха на высоте 2 м над землей.
R - Количество осадков - Количество выпавших осадков за период времени, мм. При наведении курсора мыши на число - период времени, за который выпало указанное количество осадков.
R24 - Количество осадков - Количество выпавших осадков за 24 часа, мм.
S - Снежный покров - Высота снежного покрова, см. При наведении курсора мыши на число - состояние снежного покрова и степень покрытия местности в баллах.